Location: Lugrin
(46.4033°N, 6.6674°E)
Time: 06:40:44
(UTC+00:00)

Okean 1 Rocket - Pass Details

Date: 18 September 2020
Orbit: 606 x 635 km, 82.5° (Epoch: 23 October)

Event Time Altitude Azimuth Distance (km) Brightness Sun altitude
Exits shadow 19:51:18 69° 85° (E) 682 3.0 -22.8°
Drops below altitude 10° 19:55:41 10° 14° (NNE) 2,033 5.9 -23.4°
Sets 19:57:57 0° 12° (NNE) 2,946 6.8 -23.8°
